Regional Weather Roundup
Issued by NWS

Home | Current Version | Previous Version | Text Only | Print | Product List | Glossary On
Versions: 1 2 3 4 5 6 7 8 9 10 11 12 13 14 15 16 17 18 19 20 21 22 23 24 25 26 27
000
ASUS42 KFFC 170403
RWRGA
WEATHER ROUNDUP FOR GEORGIA
NATIONAL WEATHER SERVICE PEACHTREE CITY GA
1200 AM EDT THU APR 17 2014

NOTE: "FAIR" INDICATES FEW OR NO CLOUDS BELOW 12,000 FEET WITH NO
SIGNIFICANT WEATHER AND/OR OBSTRUCTIONS TO VISIBILITY.

* = USE WITH CAUTION. THE STATIONS MARKED WITH AN ASTERISK MAY NOT
REPORT WEATHER SUCH AS PRECIPITATION, FOG, OR THUNDER AND ARE NOT
QUALITY CONTROLLED BY NWS.

THE REMARK "TC" DENOTES TEMPERATURE READING IN DEGREES CELSIUS.

GAZ001>058-170500-
NORTH GEORGIA

CITY           SKY/WX    TMP DP  RH WIND       PRES   REMARKS
ATLANTA        PTCLDY    49  30  48 E10       30.30R
ATHENS         CLEAR     43  33  68 E6        30.35R
CHAMBLEE       CLEAR     48  28  46 E6        30.31R
PEACHTREE CITY CLEAR     45  35  68 SE5       30.31R
ROME           CLEAR     51  30  44 E3        30.30R
WEST ATLANTA   CLEAR     52  29  41 E7        30.30S
GAINESVILLE    CLEAR     46  28  49 E7        30.35R
CARTERSVILLE   CLEAR     49  30  48 VRB3      30.30R


CITY           SKY/WX    TMP DP  RH WIND       PRES   REMARKS
DALTON*        CLEAR     50  32  50 CALM      30.30R
MARIETTA       CLEAR     49  30  49 E10       30.30R
$$

GAZ059>098-102>109-170500-
CENTRAL GEORGIA

CITY           SKY/WX    TMP DP  RH WIND       PRES   REMARKS
AUGUSTA-BUSH   CLEAR     42  35  76 CALM      30.36R
AUGUSTA-DANIEL CLEAR     50  32  50 NE9       30.36R
COLUMBUS       CLEAR     50  36  58 E7        30.28R
MACON          CLEAR     44  36  73 E6        30.32R
ROBINS AFB     CLEAR     49  36  61 E5        30.31R


CITY           SKY/WX    TMP DP  RH WIND       PRES   REMARKS
LAGRANGE*      CLEAR     42  39  88 CALM      30.28S
SYLVANIA*      CLEAR     48  42  80 E6        30.35S
MILLEDGEVILLE* CLEAR     50  28  43 CALM      30.34R
$$

GAZ099>101-110>166-170500-
SOUTH GEORGIA

CITY           SKY/WX    TMP DP  RH WIND       PRES   REMARKS
SAVANNAH       PTCLDY    50  41  71 NE7       30.32F
VALDOSTA       CLEAR     54  42  64 E7        30.27S
ALMA           CLEAR     47  41  80 CALM      30.30S
ST SIMONS      LGT RAIN  58  51  78 NE18G28   30.27R
FT STEWART     CLEAR     48  44  87 NE5       30.29S
ALBANY         CLEAR     53  44  71 E13       30.30R
HUNTER AFB     CLEAR     54  42  63 NE12G17   30.29F
MOODY AFB      PTCLDY    51  42  71 E9        30.27S
BRUNSWICK      CLOUDY    57  50  77 NE15G21   30.29R


CITY           SKY/WX    TMP DP  RH WIND       PRES   REMARKS
BAINBRIDGE*    PTCLDY    55  48  76 E8        30.25S
MOULTRIE*      CLOUDY    54  46  76 E7        30.27R
VIDALIA*       CLEAR     50  43  76 E9        30.32S
DOUGLAS*       PTCLDY    48  43  81 E3        30.31S
$$



USA.gov is the U.S. government's official web portal to all federal, state and local government web resources and services.